Home   Weather   Fairfield   Past weeks
Flag for USA

Past Weather in Fairfield, Illinois, USA — Yesterday and Last 2 Weeks

Now
84 °F

Partly sunny.


Feels Like: 84 °F
Forecast: 84 / 73 °F
Wind: 14 mph from South

Location: Chicago Midway Airport

Current Time: Jul 14, 2020 at 7:07:03 pm

Latest Report: Jul 14, 2020 at 5:53 pm


Visibility: 10 mi

Pressure: 29.94 "Hg

Humidity: 45%

Dew Point: 60 °F

Location of FairfieldLocation

Past Weather in Fairfield — Graph

°F

Fairfield Temperature Yesterday

Maximum temperature yesterday: 81 °F (at 3:53 pm)
Minimum temperature yesterday: 64 °F (at 4:53 am)
Average temperature yesterday: 73 °F

High & Low Weather Summary for the Past Weeks

 TemperatureHumidityPressure
High94 °F (Jul 6, 2:53 pm)97% (Jul 10, 7:53 am)30.04 "Hg (Jul 10, 7:53 am)
Low64 °F (Jul 13, 4:53 am)31% (Jul 3, 4:53 pm)29.71 "Hg (Jul 9, 10:53 pm)
Average80 °F60%29.91 "Hg
* Reported Jun 29 5:53 pm — Jul 14 5:53 pm, Fairfield. Weather by CustomWeather, © 2020

Note: Actual official high and low records may vary slightly from our data, if they occured in-between our weather recording intervals... More about our weather records

Fairfield Weather History for the Previous 24 Hours

Scroll right to see more
 ConditionsComfort  
Time TempWeatherWind HumidityBarometerVisibility
5:53 pm
Tue, Jul 14
84 °FPartly sunny.14 mph45%29.94 "Hg10 mi
4:53 pm85 °FPartly sunny.13 mph39%29.96 "Hg10 mi
3:53 pm84 °FBroken clouds.13 mph41%29.97 "Hg10 mi
2:53 pm85 °FBroken clouds.12 mph39%29.99 "Hg10 mi
1:53 pm85 °FBroken clouds.9 mph39%29.99 "Hg10 mi
12:53 pm83 °FPartly sunny.5 mph40%30.01 "Hg10 mi
11:53 am83 °FScattered clouds.12 mph41%30.03 "Hg10 mi
10:53 am81 °FScattered clouds.7 mph45%30.02 "Hg10 mi
9:53 am78 °FScattered clouds.8 mph54%30.02 "Hg10 mi
8:53 am75 °FPartly sunny.6 mph55%30.01 "Hg10 mi
7:53 am73 °FPartly sunny.8 mph59%30.00 "Hg10 mi
6:53 am69 °FPartly sunny.5 mph68%30.00 "Hg10 mi
5:53 am68 °FPartly sunny.5 mph70%30.01 "Hg10 mi
4:53 am68 °FPassing clouds.3 mph70%30.01 "Hg10 mi
3:53 am69 °FPassing clouds.5 mph68%29.99 "Hg10 mi
2:53 am70 °FClear.3 mph66%29.98 "Hg10 mi
1:53 am71 °FClear.6 mph63%29.96 "Hg10 mi
12:53 am72 °FClear.5 mph59%29.96 "Hg10 mi
11:53 pm
Mon, Jul 13
72 °FClear.5 mph66%29.96 "Hg10 mi
10:53 pm73 °FPassing clouds.6 mph64%29.97 "Hg10 mi
9:53 pm74 °FPassing clouds.6 mph60%29.98 "Hg10 mi
8:53 pm74 °FPassing clouds.7 mph57%29.97 "Hg10 mi
7:53 pm76 °FPassing clouds.10 mph52%29.96 "Hg10 mi
Weather by CustomWeather, © 2020

See weather overview